Weather History for Key West NAF, FL

Change the Weather History Date:

Tuesday, October 2, 2012

  Actual Average Record
Temperature  
Mean Temperature 81 °F -  
Max Temperature 88 °F 86 °F 91 °F (1952)
Min Temperature 75 °F 77 °F 72 °F (1951)
Cooling Degree Days 16    
Growing Degree Days 31 (Base 50)    
Moisture  
Dew Point 74 °F    
Average Humidity 82    
Maximum Humidity 94    
Minimum Humidity 69    
Precipitation  
Precipitation 1.84 in - - ()
Sea Level Pressure  
Sea Level Pressure 29.94 in    
Wind  
Wind Speed 13 mph (SSW)    
Max Wind Speed 21 mph    
Max Gust Speed 31 mph    
Visibility 8 miles    
Events Fog , Rain , Thunderstorm    
Averages and records for this station are not official NWS values.
T = Trace of Precipitation, MM = Missing Value Source: NWS Daily Summary

Daily Weather History Graph

Daily Weather History Graph

Search for Another Location

Airport:

Trip Planner

Search our weather history database for the weather conditions in past years. The results will help you decide how hot, cold, wet, or windy it might be!

Date:

Astronomy

Oct. 02, 2012 Rise Set
Actual Time 7:19 AM EDT 7:12 PM EDT
Civil Twilight 6:56 AM EDT 7:34 PM EDT
Nautical Twilight 6:30 AM EDT 8:01 PM EDT
Astronomical Twilight 6:03 AM EDT 8:27 PM EDT
Moon 8:46 PM EDT (10/2) 9:24 AM EDT (10/2)
Length of Visible Light 12h 38m
Length of Day
11h 52m
Waning Gibbous, 94% of the Moon is Illuminated
Oct 2
Waning Gibbous
Oct 8
Last Quarter
Oct 15
New
Oct 21
First Quarter
Oct 29
Full

Hourly Weather History & Observations

Time (EDT) Temp. Heat Index Dew Point Humidity Pressure Visibility Wind Dir Wind Speed Gust Speed Precip Events Conditions
12:05 AM 80.6 °F 86.2 °F 75.2 °F 84% 29.89 in 6.0 mi SW 10.4 mph - 0.02 in   Overcast
12:51 AM 80.6 °F 86.2 °F 75.2 °F 84% 29.88 in 10.0 mi South 11.5 mph - 0.02 in   Mostly Cloudy
12:53 AM 82.0 °F 89.4 °F 75.9 °F 82% 29.88 in 10.0 mi SSW 10.4 mph - 0.02 in   Mostly Cloudy
1:16 AM 82.4 °F 89.5 °F 75.2 °F 79% 29.88 in 10.0 mi South 16.1 mph - N/A   Overcast
1:53 AM 82.9 °F 90.2 °F 75.0 °F 77% 29.88 in 10.0 mi South 11.5 mph 19.6 mph N/A   Mostly Cloudy
2:53 AM 82.9 °F 90.8 °F 75.9 °F 79% 29.86 in 10.0 mi South 13.8 mph - N/A   Scattered Clouds
3:15 AM 80.6 °F 86.2 °F 75.2 °F 84% 29.87 in 5.0 mi South 13.8 mph - 0.02 in   Haze
3:45 AM 82.4 °F 89.5 °F 75.2 °F 79% 29.86 in 10.0 mi South 19.6 mph 27.6 mph 0.02 in   Mostly Cloudy
3:53 AM 82.0 °F 88.6 °F 75.0 °F 79% 29.86 in 10.0 mi South 20.7 mph 27.6 mph 0.02 in   Scattered Clouds
4:37 AM 82.4 °F 88.2 °F 73.4 °F 74% 29.87 in 10.0 mi South 18.4 mph 26.5 mph N/A   Mostly Cloudy
4:53 AM 82.0 °F 88.6 °F 75.0 °F 79% 29.87 in 10.0 mi South 18.4 mph 26.5 mph N/A   Mostly Cloudy
5:02 AM 82.4 °F 88.2 °F 73.4 °F 74% 29.88 in 10.0 mi South 16.1 mph 25.3 mph N/A   Mostly Cloudy
5:53 AM 81.0 °F 86.2 °F 73.9 °F 79% 29.88 in 10.0 mi South 18.4 mph 24.2 mph N/A   Mostly Cloudy
6:16 AM 82.4 °F 89.5 °F 75.2 °F 79% 29.90 in 10.0 mi South 13.8 mph 25.3 mph N/A   Mostly Cloudy
6:53 AM 82.0 °F 87.9 °F 73.9 °F 76% 29.90 in 10.0 mi South 17.3 mph 25.3 mph N/A   Mostly Cloudy
7:53 AM 82.0 °F 88.6 °F 75.0 °F 79% 29.91 in 10.0 mi South 15.0 mph 20.7 mph N/A   Mostly Cloudy
8:53 AM 81.0 °F 86.2 °F 73.9 °F 79% 29.93 in 10.0 mi South 12.7 mph - N/A   Mostly Cloudy
9:53 AM 84.0 °F 91.9 °F 75.0 °F 74% 29.94 in 10.0 mi South 13.8 mph - N/A   Mostly Cloudy
10:53 AM 86.0 °F 96.0 °F 75.9 °F 72% 29.95 in 10.0 mi South 9.2 mph - N/A   Mostly Cloudy
11:53 AM 87.1 °F 97.3 °F 75.9 °F 69% 29.97 in 10.0 mi South 16.1 mph - N/A   Mostly Cloudy
12:53 PM 87.1 °F 97.3 °F 75.9 °F 69% 29.97 in 10.0 mi South 13.8 mph - N/A   Mostly Cloudy
1:41 PM 84.2 °F 92.3 °F 75.2 °F 74% 29.97 in 0.5 mi SW 20.7 mph 29.9 mph 0.08 in Rain Heavy Rain
1:47 PM 78.8 °F - 73.4 °F 83% 29.95 in 10.0 mi NNW 4.6 mph 29.9 mph 0.25 in Rain Light Rain
1:53 PM 81.0 °F 87.3 °F 75.9 °F 85% 29.94 in 10.0 mi South 9.2 mph - 0.25 in Rain Light Rain
2:01 PM 80.6 °F 87.1 °F 77.0 °F 89% 29.96 in 1.0 mi WSW 19.6 mph 24.2 mph 0.04 in Rain Heavy Rain
2:03 PM 80.6 °F 85.4 °F 73.4 °F 79% 29.96 in 0.5 mi WSW 18.4 mph 24.2 mph 0.12 in Rain Heavy Rain
2:10 PM 77.0 °F - 71.6 °F 83% 29.94 in 6.0 mi West 11.5 mph - 0.32 in Rain Light Rain
2:21 PM 78.8 °F - 73.4 °F 83% 29.95 in 2.0 mi WSW 16.1 mph - 0.35 in Rain Rain
2:31 PM 77.0 °F - 71.6 °F 83% 29.95 in 0.5 mi WSW 18.4 mph 31.1 mph 0.54 in Rain Heavy Rain
2:38 PM 75.2 °F - 71.6 °F 89% 29.95 in 0.5 mi SSW 11.5 mph 31.1 mph 0.75 in Fog , Rain , Thunderstorm Heavy Thunderstorms and Rain
2:53 PM 75.0 °F - 72.0 °F 90% 29.96 in 0.5 mi WSW 10.4 mph 24.2 mph 1.16 in Fog , Rain , Thunderstorm Heavy Thunderstorms and Rain
3:06 PM 75.2 °F - 71.6 °F 89% 29.95 in 1.0 mi WSW 11.5 mph - 0.24 in Rain Rain
3:15 PM 75.2 °F - 71.6 °F 89% 29.94 in 6.0 mi SW 6.9 mph - 0.30 in Rain Light Rain
3:53 PM 75.9 °F - 72.0 °F 87% 29.95 in 10.0 mi SSE 6.9 mph - 0.31 in Rain Light Rain
4:20 PM 77.0 °F - 73.4 °F 89% 29.93 in 10.0 mi Calm Calm - 0.02 in   Mostly Cloudy
4:53 PM 81.0 °F 86.2 °F 73.9 °F 79% 29.94 in 10.0 mi Calm Calm - 0.02 in   Mostly Cloudy
5:53 PM 82.0 °F 88.6 °F 75.0 °F 79% 29.96 in 10.0 mi SE 8.1 mph - N/A   Mostly Cloudy
6:09 PM 78.8 °F - 73.4 °F 83% 29.96 in 10.0 mi SE 9.2 mph - 0.01 in Rain Light Rain
6:53 PM 79.0 °F - 75.0 °F 88% 29.97 in 10.0 mi SSE 8.1 mph - 0.02 in Rain Light Rain
7:17 PM 80.6 °F 86.2 °F 75.2 °F 84% 29.97 in 10.0 mi SSE 8.1 mph - 0.01 in   Overcast
7:53 PM 81.0 °F 86.2 °F 73.9 °F 79% 29.98 in 10.0 mi SSE 6.9 mph - 0.01 in   Overcast
8:44 PM 80.6 °F 85.4 °F 73.4 °F 79% 30.02 in 6.0 mi South 9.2 mph - 0.00 in Rain Light Rain
8:53 PM 81.0 °F 86.7 °F 75.0 °F 82% 30.02 in 6.0 mi South 11.5 mph - 0.00 in Rain Light Rain
10:53 PM 77.0 °F - 73.9 °F 90% 30.06 in 10.0 mi South 11.5 mph 17.3 mph N/A   Mostly Cloudy
11:26 PM 75.2 °F - 73.4 °F 94% 30.05 in 10.0 mi SSW 9.2 mph - 0.02 in Thunderstorm Thunderstorm
11:42 PM 77.0 °F - 73.4 °F 89% 30.05 in 10.0 mi South 4.6 mph - 0.03 in   Clear
11:53 PM 77.0 °F - 73.9 °F 90% 30.05 in 10.0 mi SSW 5.8 mph - 0.03 in   Clear